Location: Washington
(38.8950°N, 77.0370°W)
Time: 10:45:28
(UTC-04:00)

Tiangong 1 - Visible Passes

Search period start: 23 April 2014 00:00
Search period end: 03 May 2014 00:00
Orbit: 354 x 370 km, 42.8° (Epoch: 22 April)

Date Brightness Start Highest point End Pass type
(mag) Time Alt. Az. Time Alt. Az. Time Alt. Az.
30 Apr 3.1 05:12:25 10° SSW 05:14:32 18° SE 05:16:42 10° E visible
01 May 1.4 05:39:57 10° SW 05:42:51 53° SSE 05:45:45 10° ENE visible
02 May 2.4 04:34:55 24° SSE 04:35:13 25° SSE 04:37:43 10° E visible
